Regional Weather Roundup
Issued by NWS

Home | Current Version | Previous Version | Text Only | Print | Product List | Glossary On
Versions: 1 2 3 4 5 6 7 8 9 10 11 12 13 14 15 16 17 18 19 20 21 22 23 24 25 26 27 28 29 30 31 32 33 34 35 36 37 38 39 40 41 42 43 44 45 46 47 48 49 50
000
ASCA42 TJSJ 301510
RWRPR
PUERTO RICO/U.S. VIRGIN ISLANDS HOURLY WEATHER ROUNDUP
NATIONAL WEATHER SERVICE SAN JUAN PR
1100 AM AST SAT APR 30 2016

PRZ001-004-301600-
PUERTO RICO

CITY           SKY/WX    TMP DP  RH WIND       PRES   REMARKS
SAN JUAN LMM   PTSUNNY   79  73  83 E5        29.92F
CEIBA          SUNNY     77  72  83 S8        29.95F
$$

PRZ006-007-301600-
U.S. VIRGIN ISLANDS

CITY           SKY/WX    TMP DP  RH WIND       PRES   REMARKS
CHARLOTTE AMA  LGT RAIN  75  72  88 E23G30    29.95R FOG
CHRISTIANSTED  MOSUNNY   84  73  70 SE12      29.94F HX  91
$$

HOURLY WEATHER ROUNDUP FOR THE NEWS MEDIA

CITY           SKY/WX    TMP DP  RH WIND       PRES   REMARKS
ORLANDO        MOSUNNY   85  65  51 S8        29.99F
NEW YORK       PTSUNNY   57  38  48 VRB3      30.21F
NEWARK         MOSUNNY   56  39  53 NE7       30.20F
CHICAGO        CLOUDY    48  39  71 E13       30.04S
HARTFORD       SUNNY     57  30  35 E9        30.20F
BOSTON         SUNNY     54  33  45 SE9       30.22F
DALLAS         DRIZZLE   62  59  90 NW10      29.79R FOG
PHILADELPHIA   PTSUNNY   56  41  57 E7        30.22S
LOS ANGELES    PTSUNNY   58  51  78 VRB3      29.84S
WASHINGTON DC  CLOUDY    54  47  77 E6        30.19F


USA.gov is the U.S. government's official web portal to all federal, state and local government web resources and services.